User: anonymous   Login
Location: Unspecified
(0.0000°N, 0.0000°E)
Time: 03:13:26
(UTC+00:00)
Language:

SMS 1 - Orbit

View from above orbital plane
View from above orbital plane
View from above satellite
View from above satellite

Ground track
Ground track

The orbit data is extracted from the following two-line orbital elements,

1  7298U 74033A   18147.39078862 -.00000146 +00000-0 +00000-0 0  9999
2  7298 011.3567 301.6523 0019178 349.2887 209.0134 00.98612609090861
Epoch (UTC): 27 May 2018 09:22:44
Eccentricity: 0.0019178
inclination: 11.3567°
perigee height: 36176 km
apogee height: 36339 km
right ascension of ascending node: 301.6523°
argument of perigee: 349.2887°
revolutions per day: 0.98612609
mean anomaly at epoch: 209.0134°
orbit number at epoch: 9086

The dashed part of the orbit path shows where the satellite is in the earth's shadow,  

DLR